timestamp,surface_pressure_avg,surface_temp_avg,battery_voltage,lat,long
2023-09-24 00:09:01+00:00,216.4031,15.14,11.77,47.84626,-54.09684
2023-09-24 00:19:01+00:00,215.8547,15.15,11.77,47.84626,-54.09684
2023-09-24 00:29:01+00:00,212.9598,15.14,11.77,47.84626,-54.09684
2023-09-24 00:39:01+00:00,214.6498,15.13,11.77,47.84626,-54.09684
2023-09-24 00:49:01+00:00,218.1564,15.12,11.77,47.84626,-54.09684
2023-09-24 00:59:01+00:00,217.6781,15.12,11.77,47.84626,-54.09684
2023-09-24 01:09:01+00:00,214.0815,15.11,11.77,47.84626,-54.09684
2023-09-24 01:19:00+00:00,212.9565,15.1,11.77,47.84626,-54.09684
2023-09-24 01:29:00+00:00,215.0864,15.1,11.77,47.84626,-54.09684
2023-09-24 01:39:00+00:00,215.7864,15.1,11.77,47.84626,-54.09684
2023-09-24 01:49:00+00:00,214.1114,15.1,11.77,47.84626,-54.09684
2023-09-24 01:59:00+00:00,215.1181,15.1,11.77,47.84626,-54.09684
2023-09-24 02:09:00+00:00,216.2181,15.1,11.77,47.84626,-54.09684
2023-09-24 02:19:00+00:00,217.1481,15.1,11.7,47.84626,-54.09684
2023-09-24 02:29:00+00:00,220.5565,15.1,11.7,47.84626,-54.09684
2023-09-24 02:39:00+00:00,226.0364,15.1,11.7,47.84626,-54.09684
2023-09-24 02:49:00+00:00,228.5081,15.1,11.7,47.84626,-54.09684
2023-09-24 02:59:00+00:00,228.7332,15.1,11.7,47.84626,-54.09684
2023-09-24 03:09:00+00:00,230.8214,15.09,11.7,47.84626,-54.09684
2023-09-24 03:19:00+00:00,235.4914,15.09,11.7,47.84626,-54.09684
2023-09-24 03:29:00+00:00,241.1747,15.07,11.7,47.84626,-54.09684
2023-09-24 03:39:00+00:00,244.4614,15.06,11.7,47.84626,-54.09684
2023-09-24 03:49:00+00:00,249.5564,15.05,11.7,47.84626,-54.09684
2023-09-24 03:59:00+00:00,252.8748,15.04,11.7,47.84626,-54.09684
2023-09-24 04:09:00+00:00,256.2714,15.02,11.7,47.84626,-54.09684
2023-09-24 04:19:00+00:00,258.5214,15.0,11.7,47.84626,-54.09684
2023-09-24 04:29:00+00:00,261.2564,15.0,11.7,47.84626,-54.09684
2023-09-24 04:39:00+00:00,262.7014,15.0,11.7,47.84626,-54.09684
2023-09-24 04:49:00+00:00,267.3997,14.97,11.7,47.84626,-54.09684
2023-09-24 04:59:00+00:00,272.4698,14.93,11.7,47.84626,-54.09684
2023-09-24 05:09:00+00:00,275.348,14.9,11.7,47.84626,-54.09684
2023-09-24 05:19:00+00:00,275.1463,14.9,11.7,47.84626,-54.09684
2023-09-24 05:29:00+00:00,276.8731,14.9,11.7,47.84626,-54.09684
2023-09-24 05:39:00+00:00,282.313,14.9,11.7,47.84626,-54.09684
2023-09-24 05:49:00+00:00,286.2731,14.9,11.7,47.84626,-54.09684
2023-09-24 05:59:00+00:00,288.8747,14.8,11.7,47.84626,-54.09684
2023-09-24 06:09:00+00:00,289.8831,14.64,11.7,47.84626,-54.09684
2023-09-24 06:19:00+00:00,291.0048,14.6,11.7,47.84626,-54.09684
2023-09-24 06:29:00+00:00,293.4747,14.6,11.7,47.84626,-54.09684
2023-09-24 06:39:00+00:00,296.223,14.6,11.7,47.84626,-54.09684
2023-09-24 06:49:00+00:00,297.8013,14.61,11.7,47.84626,-54.09684
2023-09-24 06:59:00+00:00,297.8097,14.65,11.7,47.84626,-54.09684
2023-09-24 07:09:00+00:00,298.988,14.7,11.7,47.84626,-54.09684
2023-09-24 07:19:00+00:00,299.2881,14.7,11.7,47.84626,-54.09684
2023-09-24 07:29:00+00:00,297.9163,14.7,11.7,47.84626,-54.09684
2023-09-24 07:39:00+00:00,295.993,14.76,11.7,47.84626,-54.09684
2023-09-24 07:49:00+00:00,292.4298,14.78,11.7,47.84626,-54.09684
2023-09-24 07:59:00+00:00,287.533,14.7,11.7,47.84626,-54.09684
2023-09-24 08:09:00+00:00,282.393,14.7,11.7,47.84626,-54.09684
2023-09-24 08:19:00+00:00,278.5047,14.7,11.7,47.84626,-54.09684
2023-09-24 08:29:00+00:00,270.1581,14.7,11.7,47.84626,-54.09684
2023-09-24 08:39:00+00:00,262.3798,14.7,11.7,47.84626,-54.09684
2023-09-24 08:49:00+00:00,259.3881,14.7,11.7,47.84626,-54.09684
2023-09-24 08:59:00+00:00,256.7214,14.7,11.7,47.84626,-54.09684
2023-09-24 09:09:00+00:00,251.8531,14.7,11.7,47.84626,-54.09684
2023-09-24 09:19:00+00:00,246.5247,14.6,11.7,47.84626,-54.09684
2023-09-24 09:29:00+00:00,243.3581,14.6,11.7,47.84626,-54.09684
2023-09-24 09:39:00+00:00,236.7198,14.53,11.7,47.84626,-54.09684
2023-09-24 09:49:00+00:00,234.7364,14.5,11.7,47.84626,-54.09684
2023-09-24 09:59:00+00:00,236.7431,14.5,11.7,47.84626,-54.09684
2023-09-24 10:09:00+00:00,237.1615,14.49,11.7,47.84626,-54.09684
2023-09-24 10:19:00+00:00,235.3065,14.48,11.77,47.84626,-54.09684
2023-09-24 10:29:00+00:00,234.0847,14.48,11.77,47.84626,-54.09684
2023-09-24 10:39:00+00:00,232.4348,14.49,11.77,47.84626,-54.09684
2023-09-24 10:49:00+00:00,230.2881,14.49,11.77,47.84626,-54.09684
2023-09-24 10:59:00+00:00,228.9181,14.5,11.77,47.84626,-54.09684
2023-09-24 11:09:00+00:00,226.6915,14.5,11.77,47.84626,-54.09684
2023-09-24 11:19:00+00:00,224.5364,14.5,12.09,47.84626,-54.09684
2023-09-24 11:29:00+00:00,224.9115,14.5,12.09,47.84626,-54.09684
2023-09-24 11:39:00+00:00,227.8047,14.5,12.09,47.84626,-54.09684
2023-09-24 11:49:00+00:00,227.9814,14.5,12.09,47.84626,-54.09684
2023-09-24 11:59:00+00:00,225.9615,14.48,12.09,47.84626,-54.09684
2023-09-24 12:09:00+00:00,226.0398,14.49,12.09,47.84626,-54.09684
2023-09-24 12:19:00+00:00,227.2314,14.49,12.17,47.84626,-54.09684
2023-09-24 12:29:00+00:00,227.7581,14.5,12.17,47.84626,-54.09684
2023-09-24 12:39:00+00:00,228.1531,14.5,12.17,47.84626,-54.09684
2023-09-24 12:49:00+00:00,225.7147,14.5,12.17,47.84626,-54.09684
2023-09-24 12:59:00+00:00,226.6381,14.5,12.17,47.84626,-54.09684
2023-09-24 13:09:00+00:00,228.2781,14.5,12.17,47.84626,-54.09684
2023-09-24 13:19:00+00:00,228.5047,14.5,12.17,47.84626,-54.09684
2023-09-24 13:29:00+00:00,232.3981,14.5,12.17,47.84626,-54.09684
2023-09-24 13:39:00+00:00,236.8815,14.5,12.17,47.84626,-54.09684
2023-09-24 13:49:00+00:00,235.3898,14.5,12.17,47.84626,-54.09684
2023-09-24 13:59:00+00:00,233.9598,14.5,12.17,47.84626,-54.09684
2023-09-24 14:09:00+00:00,240.3614,14.55,12.17,47.84626,-54.09684
2023-09-24 14:19:00+00:00,247.3232,14.59,12.01,47.84626,-54.09684
2023-09-24 14:29:00+00:00,244.1981,14.6,12.01,47.84626,-54.09684
2023-09-24 14:39:00+00:00,242.8164,14.61,12.01,47.84626,-54.09684
2023-09-24 14:49:00+00:00,249.8864,14.69,12.01,47.84626,-54.09684
2023-09-24 14:59:00+00:00,254.3814,14.7,12.01,47.84626,-54.09684
2023-09-24 15:09:00+00:00,254.4615,14.75,12.01,47.84626,-54.09684
2023-09-24 15:19:01+00:00,260.0914,14.8,12.17,47.84626,-54.09684
2023-09-24 15:29:01+00:00,267.1431,14.86,12.17,47.84626,-54.09684
2023-09-24 15:39:01+00:00,270.27299999999997,14.86,12.17,47.84626,-54.09684
2023-09-24 15:49:01+00:00,271.7264,14.9,12.17,47.84626,-54.09684
2023-09-24 15:59:01+00:00,280.238,14.8,12.17,47.84626,-54.09684
2023-09-24 16:09:01+00:00,288.7081,14.8,12.17,47.84626,-54.09684
2023-09-24 16:19:01+00:00,294.7397,14.8,12.01,47.84626,-54.09684
2023-09-24 16:29:01+00:00,297.9664,14.8,12.01,47.84626,-54.09684
2023-09-24 16:39:01+00:00,303.3931,14.8,12.01,47.84626,-54.09684
2023-09-24 16:49:01+00:00,309.013,14.8,12.01,47.84626,-54.09684
2023-09-24 16:59:01+00:00,313.3181,14.8,12.01,47.84626,-54.09684
2023-09-24 17:09:01+00:00,314.4581,14.8,12.01,47.84626,-54.09684
2023-09-24 17:19:01+00:00,317.3363,14.8,12.01,47.84626,-54.09684
2023-09-24 17:29:01+00:00,322.438,14.8,12.01,47.84626,-54.09684
2023-09-24 17:39:01+00:00,328.9347,14.8,12.01,47.84626,-54.09684
2023-09-24 17:49:01+00:00,327.2796,14.82,12.01,47.84626,-54.09684
2023-09-24 17:59:01+00:00,326.198,14.83,12.01,47.84626,-54.09684
2023-09-24 18:09:01+00:00,333.9997,14.83,12.01,47.84626,-54.09684
2023-09-24 18:19:01+00:00,335.9497,14.85,12.01,47.84626,-54.09684
2023-09-24 18:29:01+00:00,333.2729,14.88,12.01,47.84626,-54.09684
2023-09-24 18:39:01+00:00,335.2029,14.89,12.01,47.84626,-54.09684
2023-09-24 18:49:01+00:00,340.7947,14.88,12.01,47.84626,-54.09684
2023-09-24 18:59:01+00:00,337.9896,14.87,12.01,47.84626,-54.09684
2023-09-24 19:09:01+00:00,332.3063,14.89,12.01,47.84626,-54.09684
2023-09-24 19:19:00+00:00,337.9263,14.88,11.93,47.84626,-54.09684
2023-09-24 19:29:00+00:00,340.5897,14.88,11.93,47.84626,-54.09684
2023-09-24 19:39:00+00:00,336.5364,14.86,11.93,47.84626,-54.09684
2023-09-24 19:49:00+00:00,335.3229,14.89,11.93,47.84626,-54.09684
2023-09-24 19:59:00+00:00,337.3096,14.89,11.93,47.84626,-54.09684
2023-09-24 20:09:00+00:00,337.6863,14.89,11.93,47.84626,-54.09684
2023-09-24 20:19:01+00:00,330.4563,14.9,11.93,47.84626,-54.09684
2023-09-24 20:29:01+00:00,328.8663,14.9,11.93,47.84626,-54.09684
2023-09-24 20:39:01+00:00,325.8063,14.9,11.93,47.84626,-54.09684
2023-09-24 20:49:01+00:00,316.8181,14.9,11.93,47.84626,-54.09684
2023-09-24 20:59:01+00:00,310.6863,14.9,11.93,47.84626,-54.09684
2023-09-24 21:09:01+00:00,307.583,14.9,11.93,47.84626,-54.09684
2023-09-24 21:19:00+00:00,304.0563,14.89,11.86,47.84626,-54.09684
2023-09-24 21:29:00+00:00,295.3597,14.9,11.86,47.84626,-54.09684
2023-09-24 21:39:00+00:00,290.3198,14.9,11.86,47.84626,-54.09684
2023-09-24 21:49:00+00:00,288.7731,14.9,11.86,47.84626,-54.09684
2023-09-24 21:59:00+00:00,286.008,14.9,11.86,47.84626,-54.09684
2023-09-24 22:09:00+00:00,278.9213,14.9,11.86,47.84626,-54.09684
2023-09-24 22:19:01+00:00,272.6697,14.9,11.86,47.84626,-54.09684
2023-09-24 22:29:01+00:00,269.1597,14.9,11.86,47.84626,-54.09684
2023-09-24 22:39:01+00:00,265.503,14.9,11.86,47.84626,-54.09684
2023-09-24 22:49:01+00:00,259.6947,14.9,11.86,47.84626,-54.09684
2023-09-24 22:59:01+00:00,257.138,14.9,11.86,47.84626,-54.09684
2023-09-24 23:09:01+00:00,258.703,14.9,11.86,47.84626,-54.09684
2023-09-24 23:19:00+00:00,256.7531,14.9,11.86,47.84626,-54.09684
2023-09-24 23:29:00+00:00,253.4064,14.9,11.86,47.84626,-54.09684
2023-09-24 23:39:00+00:00,253.8464,14.9,11.86,47.84626,-54.09684
2023-09-24 23:49:00+00:00,252.7847,14.9,11.86,47.84626,-54.09684
2023-09-24 23:59:00+00:00,247.0131,14.9,11.86,47.84626,-54.09684
